Location: Frankfurt+am+Main
(50.1100°N, 8.4815°E)
Time: 14:11:18
(UTC+02:00)

ISS - Pass Details

Date: 07 January 2018
Orbit: 402 x 409 km, 51.6° (Epoch: 21 August)

Event Time Altitude Azimuth Distance (km) Brightness Sun altitude
Exits shadow 05:59:53 53° 53° (NE) 529 -3.1 -22.1°
Drops below altitude 10° 06:02:42 10° 84° (E) 1,516 0.1 -21.6°
Sets 06:04:50 0° 88° (E) 2,384 1.5 -21.3°
